Погода в Урджаре

Казахстан     47°05′14″N   81°37′51″E
темп.,
°C
ветер,
м/с
пор.,
м/с
влажн.,
%
обл.,
%
осадки,
мм/ч
давл.,
гПа
погр.,
м
20 января, ср
ср2000:00+1св238798 0.1 101833
03:00−2ююз1283100 0.0 101821
06:00−4юв1180100 0.0 101921
09:00−3вюв118396 0.0 102122
12:00−2в119598 0.6 102394
15:000всв0199100 0.3 102346
18:00−1ююв2299100 2.0 102578
21:00−1вюв1299100 1.4 102646
21 января, чт
чт2100:000в4698100 2.3 1025169
03:000вюв4698100 2.2 1024193
06:00+1в4797100 2.9 1023177
09:00+1в4794100 0.3 1022196
12:00+1всв248793 0.3 101982
15:00+2вюв118070 0.0 101533
18:00−2юв017683 0.0 101321
21:00−4ююв1176100 0.0 101221
22 января, пт
пт2200:00−2вюв1271100 0.0 101043
03:00−2ю1371100 0.0 100951
06:00−5юв0175100 0.0 100721
09:00−6юв117996 0.0 100722
12:00−2св127992 0.0 100849
15:00−3в3387100 0.0 101066
18:00−4в2397100 1.8 101290
21:00−3зюз81597100 5.6 10181107
23 января, сб
сб2300:00−7з91595100 9.8 1025967
03:00−10з31092100 0.7 1031441
06:00−12зюз5996100 1.1 1034341
09:00−15зюз2596100 0.1 1038140
12:00−14юв0192100 0.1 103877
15:00−13всв2389100 0.0 1038176
18:00−14всв3394100 0.3 103960
21:00−14вюв3695100 0.5 1038215
24 января, вс
вс2400:00−13вюв3796100 1.6 1037300
03:00−12в2496100 1.8 1037165
06:00−12в2596100 3.6 1037181
09:00−12в2396100 1.4 1039157
12:00−10юв2293100 2.1 1039236
15:00−9юв1193100 0.3 1039184
18:00−12ююв1195100 0.4 104121
21:00−11ю1295100 0.3 104033